User: anonymous   Login
Location: Unspecified
(0.0000°N, 0.0000°E)
Time: 09:02:32
(UTC+00:00)
Language:

RISAT 1 - Orbit

View from above orbital plane
View from above orbital plane
View from above satellite
View from above satellite

Ground track
Ground track

The orbit data is extracted from the following two-line orbital elements,

1 38248U 12017A   16120.89498166  .00000917  00000-0  62071-4 0  9994
2 38248  97.5628 128.2289 0005788  29.3957  22.0607 15.08938957220915
Epoch (UTC): 29 April 2016 21:28:46
Eccentricity: 0.0005788
inclination: 97.5628°
perigee height: 535 km
apogee height: 543 km
right ascension of ascending node: 128.2289°
argument of perigee: 29.3957°
revolutions per day: 15.08938957
mean anomaly at epoch: 22.0607°
orbit number at epoch: 22091

The dashed part of the orbit path shows where the satellite is in the earth's shadow,  

DLR